Temperature
15 15 15 16 19 20 21 21 21 20 20 19 18 19 21 21 20 19 14 14 14 14 14 14 14 14 14 14 14 14 14 14 14 14 14 14 14 14 14 14 14 14 14 14 14 14 14 14 14
15 15 15 17 20 20 21 21 20 20 19 17 17 18 19 18 15 14 14 14 14 14 14 14 14 14 14 14 14 14 14 14 14 14 14 14 14 14 14 14 13 13 13 13 13 13 14 14 14
14 15 16 19 19 21 21 20 20 18 17 17 17 16 17 17 14 13 14 14 14 13 14 14 14 14 14 14 14 14 13 13 13 13 13 13 13 13 14 14 13 13 13 13 13 13 13 13 13
14 15 16 19 19 20 20 20 18 18 16 16 17 17 15 13 13 13 14 14 13 13 13 13 14 14 14 13 13 13 13 13 13 13 13 13 13 13 13 13 13 13 13 13 13 13 13 13 13
14 16 18 18 19 19 19 18 17 18 18 16 16 17 15 13 13 13 14 13 13 13 13 13 13 13 13 13 13 13 13 13 13 13 13 13 13 13 13 13 13 13 13 13 13 13 13 13 13
15 17 18 18 18 18 18 16 16 17 17 16 16 17 15 13 13 13 13 13 13 13 13 13 13 13 13 13 13 13 13 13 13 13 13 13 13 13 13 13 13 13 13 13 13 13 12 13 13
15 17 17 18 18 17 17 16 16 17 17 15 15 16 14 12 12 13 13 12 12 12 12 12 12 12 13 13 13 13 13 13 12 12 12 12 12 12 12 12 13 13 12 12 12 12 12 12 13
14 16 16 16 17 17 16 15 15 15 15 13 14 16 15 12 12 12 12 12 12 12 12 12 12 12 12 12 12 12 12 12 12 12 12 12 12 12 12 12 12 12 12 12 12 12 12 12 12
13 15 16 16 16 16 15 15 14 13 13 12 12 13 12 12 12 12 11 12 12 12 12 12 12 12 12 12 12 12 12 12 12 12 12 12 12 12 12 12 12 12 12 12 12 12 12 12 12
13 15 15 15 15 15 14 14 14 14 14 13 12 11 11 11 11 11 11 11 12 12 12 12 12 12 11 11 11 12 12 12 12 12 12 11 11 11 11 11 12 12 12 11 11 11 11 11 11
13 14 14 13 12 13 13 13 12 14 15 14 13 11 11 10 10 11 11 11 11 11 11 11 11 11 11 11 11 11 11 11 11 11 11 11 11 11 11 11 11 11 11 11 11 11 11 11 11
12 12 12 12 11 11 12 12 12 13 13 12 11 11 10 10 10 10 10 11 11 11 11 11 11 11 11 11 11 11 11 11 11 11 11 11 11 11 11 11 11 11 11 10 10 11 10 11 11
12 12 11 10 10 10 10 11 11 11 11 10 10 10 10 10 10 10 10 10 10 10 10 11 11 11 11 11 11 11 11 11 11 11 11 10 10 10 10 10 10 10 10 10 10 10 10 10 10
11 11 11 10 11 10 11 11 11 11 10 10 10 10 9 9 9 9 9 10 10 10 10 10 10 10 10 10 10 10 10 10 10 10 10 10 10 10 10 10 10 10 10 10 10 10 10 10 10
9 11 11 11 11 10 10 11 11 11 10 10 9 9 9 9 9 9 9 10 10 10 10 10 10 10 10 10 10 10 10 10 10 10 10 10 10 9 9 9 9 9 9 9 9 9 9 9 9
11 11 12 11 11 10 11 12 13 10 10 10 10 9 8 8 8 8 9 9 9 9 9 10 9 9 9 9 9 9 9 9 9 9 9 9 9 9 9 9 9 9 9 9 9 9 9 9 9
11 11 12 11 10 10 11 12 12 9 9 10 10 9 8 8 8 8 8 9 9 9 9 9 9 9 9 9 9 9 9 9 8 8 8 8 8 8 8 8 8 8 8 8 8 8 8 8 8
11 11 11 11 10 10 10 11 11 10 9 10 9 9 8 8 7 7 8 8 8 8 8 8 8 8 8 8 8 8 8 8 8 8 8 8 8 8 8 8 8 7 7 7 7 7 7 7 7
10 10 10 11 9 9 10 10 11 11 9 9 9 9 8 7 7 7 7 7 8 8 8 8 8 8 8 8 8 8 8 8 7 7 7 7 7 7 7 7 7 7 7 7 7 7 7 7 7
9 9 10 10 9 9 9 10 11 10 9 9 9 8 8 7 6 6 6 7 7 7 7 7 7 7 7 7 7 7 7 7 7 7 7 7 7 7 6 6 6 6 6 6 6 6 6 6 6
9 9 9 9 8 8 8 10 11 10 9 8 8 8 7 7 6 6 6 6 6 7 7 7 7 6 7 7 6 6 6 6 6 6 6 6 6 6 6 6 6 6 6 6 5 5 5 5 5
9 8 8 7 8 9 8 10 11 10 9 9 8 7 7 6 6 6 6 6 6 6 6 6 6 6 6 6 6 6 6 6 6 6 6 6 5 5 5 5 5 5 5 5 5 5 5 5 5
8 7 7 7 7 7 8 8 11 9 9 9 8 7 6 6 5 5 5 5 6 6 6 5 5 5 5 5 5 5 5 5 5 5 5 5 5 5 5 5 4 4 4 4 4 4 4 4 4
6 6 6 6 7 7 8 8 10 10 9 9 8 6 5 5 4 4 4 5 5 5 5 5 5 5 5 5 5 5 5 4 4 4 4 4 4 4 4 4 4 4 4 4 4 4 4 4 4
6 7 8 8 7 9 7 7 9 9 7 7 7 6 5 4 4 4 4 4 4 4 5 5 5 5 5 4 4 4 4 4 4 4 4 4 4 4 4 3 3 3 3 3 3 3 3 3 3
6 7 7 8 9 9 6 7 9 7 6 5 5 5 4 4 4 3 3 3 4 4 4 4 4 4 4 4 4 4 3 3 3 3 3 3 3 3 3 3 3 3 3 3 3 3 3 3 3
6 6 6 6 5 6 8 8 8 7 6 6 5 5 4 4 3 3 3 3 3 4 4 4 4 4 4 4 4 3 3 3 3 3 3 3 3 3 3 3 3 2 2 2 2 2 2 2 2
5 5 5 5 6 8 9 8 9 7 6 6 6 5 4 3 3 3 3 3 3 3 4 4 4 4 3 3 3 3 3 3 3 3 2 2 2 2 2 2 2 2 2 2 2 1 1 1 2
4 4 5 5 5 7 8 9 8 7 6 6 5 5 4 3 3 3 3 3 3 3 3 3 3 3 3 3 3 2 2 2 2 2 2 2 2 2 2 2 1 1 1 1 1 1 1 1 1
5 5 4 5 5 5 6 8 7 6 5 5 4 4 3 3 3 3 3 2 3 3 3 3 3 3 2 2 2 2 2 2 2 1 2 2 2 1 1 1 1 1 1 1 1 1 1 1 1
Wind_Speed
3 1 2 3 5 6 11 7 5 5 4 3 2 3 4 3 2 1 4 4 5 7 8 9 7 8 8 8 8 9 9 9 8 8 7 7 8 8 8 7 7 7 7 8 8 8 8 9 8
2 1 3 4 7 10 9 7 8 5 3 3 2 3 3 2 1 3 3 4 6 7 8 8 9 8 8 8 8 9 8 8 8 8 8 8 8 8 7 7 7 7 7 7 7 7 8 8 8
1 2 3 4 8 11 8 5 5 3 3 3 3 2 2 1 2 2 3 5 6 7 7 8 8 8 8 8 8 8 8 8 7 7 7 8 8 8 7 7 7 6 6 6 7 7 6 7 7
2 3 3 7 12 10 7 3 3 5 4 3 4 3 2 1 1 2 4 5 7 7 7 8 8 8 8 7 7 7 8 8 7 7 7 7 6 7 7 6 6 6 6 6 6 6 6 6 6
2 4 7 10 12 8 5 3 4 5 5 4 5 4 3 2 2 4 5 5 6 6 6 7 7 7 7 7 7 7 7 7 7 7 6 6 6 6 6 6 6 5 5 5 5 5 5 5 4
3 4 8 12 11 7 6 4 4 5 4 3 4 5 3 3 3 4 5 5 5 5 5 6 7 6 6 6 6 7 7 7 7 6 6 6 5 5 5 5 5 5 4 4 3 4 4 4 4
4 5 8 10 9 8 5 4 4 4 4 3 3 5 4 4 3 4 4 5 4 4 4 5 5 6 6 6 6 6 6 6 6 6 5 5 5 5 4 4 4 4 4 3 2 3 3 2 2
3 4 6 7 9 8 4 4 3 4 3 1 3 5 4 4 4 4 4 5 4 3 3 4 4 4 5 5 6 5 5 5 6 5 5 6 6 5 4 4 4 3 3 2 2 2 2 2 1
2 6 9 7 7 5 3 4 3 2 3 2 3 3 1 4 5 5 5 4 4 3 2 2 3 3 4 4 5 5 5 4 5 5 5 4 3 2 2 3 3 3 2 2 1 1 2 1 2
4 7 8 4 3 2 3 4 3 4 6 6 4 3 2 4 6 7 6 6 4 3 2 2 2 3 3 3 4 4 3 3 3 3 3 3 2 1 1 3 3 2 2 1 2 1 2 2 2
4 6 4 3 3 3 4 4 4 6 8 8 7 6 4 5 6 7 7 7 5 4 3 2 2 2 3 3 3 2 2 2 3 3 3 2 2 1 1 1 2 1 1 0 0 1 1 2 2
4 5 4 3 2 4 4 4 5 8 7 5 6 6 6 8 7 7 7 6 5 4 4 3 2 2 2 2 3 3 2 2 2 2 3 2 1 1 1 1 1 1 1 1 2 2 2 2 3
6 4 4 4 4 4 5 6 6 8 7 4 3 6 8 8 8 6 6 6 5 5 4 4 3 3 3 2 3 3 3 3 3 2 3 3 2 2 2 1 1 1 2 2 2 2 2 3 3
3 3 4 4 5 4 6 8 6 8 5 4 4 5 6 7 7 6 6 6 6 5 5 4 3 3 3 3 2 3 3 3 3 3 3 3 3 2 2 2 2 2 2 2 3 3 3 3 3
2 3 5 5 5 4 4 8 8 6 5 5 5 5 5 6 6 7 6 6 6 5 4 4 4 3 3 3 2 2 2 3 3 3 3 4 3 3 3 3 2 2 2 2 3 3 3 3 3
3 5 5 3 3 3 5 10 5 4 6 7 6 5 5 5 5 5 5 5 5 4 4 4 3 3 3 2 2 1 2 3 3 3 3 4 4 4 3 3 3 2 2 2 2 3 3 3 3
4 6 7 5 3 4 7 10 5 4 6 8 7 6 6 5 4 4 3 3 4 4 3 3 3 3 3 2 2 2 1 2 2 2 3 3 4 4 4 3 2 3 2 3 3 3 3 3 3
5 6 7 7 3 6 9 12 9 7 8 8 7 6 6 6 5 3 2 2 2 2 3 3 3 3 3 2 2 2 2 2 2 2 2 3 3 4 4 3 3 3 3 3 3 3 3 3 3
5 7 9 8 5 6 11 14 12 9 8 8 8 7 6 6 4 3 2 2 2 2 2 3 3 3 3 2 2 2 2 2 2 2 2 3 3 4 4 3 3 3 3 4 4 3 3 3 2
6 8 9 7 4 6 10 15 13 10 9 9 9 8 7 6 5 4 3 2 2 2 2 3 3 3 3 3 2 2 2 2 3 2 3 3 4 4 4 4 3 4 3 4 4 4 3 3 2
8 9 8 7 6 6 9 11 9 7 7 7 8 8 7 7 6 5 4 3 2 2 2 2 3 3 3 3 2 2 2 2 3 3 3 4 4 4 4 4 4 4 4 4 4 5 5 4 4
7 5 7 7 6 5 4 7 7 6 6 6 6 7 7 6 6 5 5 4 3 2 2 2 3 3 3 3 3 4 3 4 4 3 3 4 4 4 4 4 5 4 4 4 5 5 5 5 4
4 2 4 5 6 6 5 6 7 4 7 6 5 6 6 6 5 5 5 4 4 3 2 2 3 3 3 3 4 4 4 4 3 3 4 4 4 4 4 4 4 5 4 5 5 5 5 5 5
2 2 2 3 4 6 7 7 7 4 5 4 3 3 4 4 5 4 4 3 3 3 2 2 3 3 3 4 4 4 4 4 4 3 3 3 3 3 4 4 4 5 4 5 5 5 6 6 6
2 2 2 3 4 6 2 6 7 3 4 5 5 4 3 3 4 4 4 4 3 3 2 2 3 3 3 4 4 4 4 4 5 4 4 4 3 3 3 3 4 4 4 5 5 6 6 6 6
4 3 3 4 4 4 3 7 5 2 3 4 5 4 3 3 3 3 3 4 3 3 3 3 3 3 3 3 4 4 4 4 4 4 4 4 4 4 4 4 4 4 5 5 5 5 6 5 6
3 4 1 2 3 5 6 6 6 3 3 3 3 3 3 3 3 3 2 3 3 3 3 3 3 3 3 3 3 3 4 4 4 4 4 4 4 3 4 4 4 4 4 5 5 5 6 6 6
1 3 3 3 4 6 6 7 4 3 3 2 2 2 2 2 2 2 1 2 2 3 3 3 3 3 3 3 3 3 3 4 4 4 4 4 4 4 4 4 4 4 5 5 5 5 6 6 6
4 4 4 3 3 5 6 5 1 3 3 3 3 2 2 2 2 2 2 2 3 3 3 2 3 3 3 3 3 3 3 3 4 4 4 4 4 4 4 4 4 4 5 5 5 6 6 6 6
5 6 6 5 5 5 7 7 1 4 3 3 4 3 3 3 3 3 3 3 3 3 3 3 3 3 3 3 3 3 4 4 4 4 4 4 4 4 4 4 5 5 5 5 6 6 6 7 7
Wind_Direction
335 275 215 209 212 225 234 223 217 196 203 205 191 211 220 221 243 95 90 126 138 144 145 145 144 139 134 128 124 119 114 109 107 107 103 102 99 93 90 91 93 97 99 99 96 93 91 87 84
319 235 210 215 226 228 229 219 213 206 178 159 184 208 206 200 36 86 112 130 146 145 147 146 141 140 134 130 126 120 114 111 109 107 101 96 97 95 91 89 87 92 97 99 97 95 94 90 85
226 242 216 211 226 233 227 202 210 190 178 191 182 206 229 173 131 123 105 146 148 144 146 138 141 142 137 133 129 126 119 113 110 108 102 95 92 90 87 86 85 85 93 97 99 96 96 95 91
216 196 214 229 228 233 240 219 193 179 186 203 199 174 169 71 97 105 123 146 147 143 146 138 140 142 141 139 136 131 125 119 113 107 102 96 91 90 84 82 82 82 85 100 102 100 94 92 93
221 212 216 228 234 233 235 243 206 205 199 197 206 203 179 116 95 114 131 141 144 138 137 139 138 142 141 140 140 138 129 120 117 111 106 101 95 90 85 79 76 78 81 90 98 105 101 96 94
199 216 225 230 229 229 230 226 214 221 211 205 209 206 190 142 125 128 133 139 138 135 132 133 137 138 138 140 140 139 132 123 117 114 108 103 100 95 87 81 76 69 68 79 97 100 100 99 95
220 222 236 236 232 230 226 213 215 218 216 220 230 210 187 174 135 138 136 134 129 133 135 134 142 142 134 132 132 134 129 125 120 114 106 102 101 97 93 84 77 70 62 60 91 113 108 104 103
234 227 231 228 229 232 215 213 233 240 231 217 231 223 205 179 149 146 142 140 131 134 141 143 144 148 148 141 123 122 124 126 126 120 107 104 104 100 95 95 81 75 65 52 62 124 126 112 113
215 228 233 227 227 224 205 225 234 255 216 219 240 276 332 144 159 159 158 157 147 140 150 158 156 157 157 155 141 136 131 128 132 127 115 125 139 131 122 94 84 78 71 52 40 112 129 147 162
210 230 236 239 245 237 236 251 241 224 233 236 232 241 169 163 181 185 188 186 180 183 179 175 177 177 176 170 163 165 162 153 161 158 153 161 157 133 126 119 112 96 85 79 61 101 173 215 219
213 233 235 234 242 254 257 263 255 238 245 241 233 220 198 197 205 208 206 202 197 198 195 193 192 190 189 184 180 175 170 164 171 169 169 177 174 160 167 167 157 157 178 205 92 221 237 248 253
219 242 244 244 257 257 258 255 254 249 258 284 258 225 212 214 217 218 214 210 202 201 206 200 199 194 201 203 193 184 177 177 177 179 188 195 200 200 204 209 239 249 255 276 273 277 273 269 261
225 243 250 254 252 260 262 257 261 255 263 273 245 211 215 218 222 224 220 215 207 201 206 206 200 197 199 202 208 194 190 193 189 187 194 204 211 211 214 218 223 255 265 267 277 281 277 272 270
233 242 253 261 257 255 259 265 257 255 252 245 227 220 224 223 222 222 217 213 214 212 210 209 206 202 201 207 212 206 195 193 197 190 197 202 210 217 220 222 227 245 261 273 272 278 274 276 273
216 249 257 249 251 249 260 257 241 248 236 240 241 239 234 232 228 228 226 219 218 217 213 208 205 205 203 208 212 215 197 194 197 197 202 203 209 215 221 226 227 240 252 258 265 274 269 271 275
220 236 247 231 239 236 246 257 243 234 235 243 244 241 239 237 233 231 231 227 221 210 205 204 196 196 201 204 202 195 208 202 199 197 203 208 212 217 222 227 230 234 243 250 254 261 261 260 268
215 239 253 256 240 245 239 260 262 258 246 249 247 241 238 236 233 229 228 232 223 209 198 194 187 188 191 196 190 183 180 207 205 197 201 212 216 219 225 230 232 226 241 248 249 259 265 264 266
235 244 251 254 260 255 251 259 266 259 252 251 248 241 236 234 234 227 218 217 215 212 197 186 176 189 189 185 184 176 176 201 212 211 211 220 225 225 231 231 227 227 233 238 240 252 265 267 270
253 254 261 268 279 267 261 267 268 262 249 246 245 242 233 232 230 219 213 198 184 201 201 196 190 195 192 188 198 201 204 207 218 226 232 231 233 232 235 235 229 228 233 240 241 247 254 265 272
242 256 268 278 278 268 274 274 267 253 242 246 247 239 233 230 220 213 209 205 199 205 212 212 205 204 201 206 212 220 222 226 225 232 239 240 238 235 238 234 232 232 238 241 240 240 245 259 250
244 250 265 276 296 260 279 272 247 233 240 244 242 240 234 226 221 213 206 206 207 213 218 223 221 213 205 204 197 193 204 223 226 228 234 243 242 237 239 244 240 235 234 238 242 237 241 246 249
253 258 262 269 273 268 265 279 261 239 243 241 239 237 237 232 224 217 213 214 222 229 222 224 226 214 208 206 204 206 218 229 237 236 236 240 240 240 240 246 241 238 236 240 242 243 250 243 243
259 294 263 258 256 268 241 255 267 239 247 246 243 241 240 236 228 223 219 219 226 229 222 218 225 216 213 211 211 217 228 235 236 236 235 238 237 239 241 245 243 238 238 242 245 244 245 246 243
225 240 233 237 242 254 241 239 268 238 240 248 253 253 243 236 232 227 223 221 226 229 221 216 221 226 216 213 216 219 229 235 238 243 244 248 246 240 241 250 248 244 243 245 246 245 243 244 244
209 230 253 234 229 247 193 234 257 267 256 255 261 273 266 239 229 224 223 224 230 233 234 227 227 231 223 218 222 227 235 238 241 247 248 253 255 256 254 254 251 250 250 250 247 246 245 244 242
207 220 232 261 265 274 210 239 258 281 280 268 257 261 261 246 232 228 229 230 233 236 237 235 236 238 237 230 231 233 235 239 245 247 248 249 252 256 262 260 256 257 254 249 244 247 246 245 243
187 204 246 259 280 272 252 259 273 240 266 263 243 240 242 240 235 232 234 241 244 243 239 236 233 237 236 231 236 240 242 241 246 249 249 250 253 254 252 256 256 256 253 248 245 242 244 245 245
244 168 173 209 252 264 263 259 257 241 242 261 261 252 251 247 243 244 254 258 258 259 257 243 232 233 231 226 230 238 243 243 246 246 245 249 252 253 252 256 256 255 252 249 246 247 246 246 247
174 185 208 218 250 260 273 264 237 240 236 249 261 292 293 269 258 267 279 276 266 263 263 253 233 231 231 231 233 237 245 247 248 245 243 243 246 247 251 254 255 256 255 250 246 245 248 246 248
221 215 200 224 236 239 265 272 218 240 260 270 278 298 303 294 290 284 279 277 273 264 259 257 244 236 239 239 241 242 248 247 243 245 244 242 242 243 247 249 250 252 253 251 248 248 248 247 248
Height
1507 1507 1509 1512 1511 1506 1500 1497 1499 1501 1503 1506 1507 1506 1504 1505 1507 1512 1513 1511 1513 1515 1516 1517 1519 1520 1521 1522 1523 1524 1525 1525 1526 1526 1527 1527 1527 1527 1528 1528 1528 1528 1528 1529 1529 1529 1529 1529 1529
1507 1508 1511 1511 1505 1502 1497 1496 1499 1500 1504 1507 1508 1507 1507 1508 1510 1511 1510 1511 1513 1515 1516 1517 1518 1520 1521 1522 1523 1524 1524 1525 1526 1526 1527 1527 1527 1527 1527 1528 1528 1528 1528 1529 1529 1529 1529 1529 1529
1507 1508 1511 1507 1501 1496 1494 1497 1498 1503 1506 1507 1508 1508 1508 1509 1510 1510 1510 1511 1513 1515 1516 1517 1518 1519 1521 1522 1523 1523 1524 1525 1525 1526 1526 1527 1527 1527 1527 1527 1528 1528 1528 1529 1529 1529 1529 1529 1529
1508 1510 1510 1504 1497 1495 1495 1497 1501 1503 1506 1507 1507 1508 1509 1510 1510 1510 1510 1511 1513 1515 1516 1517 1518 1519 1520 1521 1522 1523 1524 1524 1525 1525 1526 1526 1527 1527 1527 1527 1527 1528 1528 1528 1529 1529 1529 1529 1529
1507 1508 1504 1500 1496 1496 1498 1501 1503 1502 1503 1505 1506 1506 1508 1509 1509 1509 1510 1512 1513 1514 1516 1516 1517 1518 1519 1520 1521 1522 1523 1523 1524 1525 1525 1526 1526 1526 1526 1526 1527 1527 1527 1528 1528 1528 1528 1528 1528
1508 1505 1500 1495 1494 1497 1499 1502 1503 1502 1503 1505 1506 1506 1508 1508 1508 1509 1510 1511 1513 1514 1515 1516 1516 1517 1519 1520 1521 1521 1522 1522 1523 1524 1524 1525 1525 1525 1526 1526 1526 1526 1527 1527 1527 1527 1527 1527 1527
1506 1502 1496 1494 1495 1496 1499 1502 1502 1502 1503 1505 1506 1505 1507 1508 1508 1508 1510 1511 1512 1513 1514 1515 1516 1516 1517 1518 1520 1520 1521 1522 1522 1523 1523 1524 1524 1525 1525 1525 1525 1526 1526 1526 1526 1526 1526 1526 1526
1504 1502 1498 1496 1496 1496 1500 1501 1502 1503 1503 1505 1506 1505 1505 1507 1507 1508 1509 1510 1511 1512 1512 1513 1514 1516 1516 1517 1518 1519 1520 1520 1521 1522 1522 1523 1523 1523 1523 1524 1524 1524 1525 1525 1525 1525 1525 1525 1525
1504 1503 1496 1495 1496 1496 1500 1501 1502 1503 1504 1504 1504 1505 1505 1505 1505 1507 1508 1509 1509 1510 1511 1512 1513 1514 1515 1516 1517 1517 1518 1519 1520 1520 1521 1521 1522 1522 1522 1522 1522 1523 1523 1523 1523 1523 1523 1523 1523
1503 1498 1495 1497 1498 1498 1500 1500 1501 1502 1501 1502 1503 1503 1503 1503 1504 1505 1506 1506 1507 1508 1509 1510 1511 1512 1513 1514 1515 1516 1517 1517 1518 1518 1519 1519 1520 1520 1520 1520 1521 1521 1521 1521 1522 1522 1521 1521 1521
1501 1497 1498 1500 1500 1501 1500 1501 1501 1500 1498 1499 1500 1501 1501 1502 1503 1503 1504 1504 1505 1506 1507 1508 1509 1510 1511 1512 1513 1514 1514 1515 1516 1516 1516 1517 1518 1518 1518 1519 1519 1519 1519 1519 1519 1520 1519 1519 1519
1501 1500 1500 1500 1500 1501 1500 1500 1500 1498 1497 1498 1498 1499 1499 1499 1500 1501 1501 1502 1502 1503 1505 1506 1506 1507 1508 1509 1510 1511 1512 1512 1513 1514 1514 1515 1515 1516 1516 1516 1516 1516 1517 1517 1517 1517 1517 1517 1517
1499 1499 1500 1500 1500 1500 1499 1498 1498 1496 1496 1496 1496 1496 1497 1497 1497 1498 1499 1499 1500 1501 1502 1503 1504 1504 1506 1507 1507 1508 1509 1510 1511 1511 1511 1512 1512 1513 1514 1514 1514 1514 1514 1514 1514 1515 1515 1515 1514
1499 1500 1499 1499 1499 1498 1498 1496 1496 1492 1494 1494 1494 1494 1494 1495 1495 1495 1496 1496 1497 1498 1499 1500 1501 1502 1503 1504 1504 1505 1506 1507 1508 1508 1509 1509 1510 1510 1511 1511 1511 1511 1511 1511 1512 1512 1512 1512 1512
1500 1499 1497 1497 1497 1497 1497 1492 1491 1491 1492 1492 1492 1492 1492 1492 1492 1492 1493 1493 1495 1496 1496 1497 1498 1499 1500 1501 1502 1502 1503 1504 1504 1505 1506 1506 1507 1507 1508 1508 1508 1508 1508 1508 1509 1509 1509 1509 1509
1498 1496 1493 1493 1495 1495 1497 1485 1486 1489 1489 1489 1490 1490 1489 1489 1489 1489 1490 1491 1492 1492 1493 1494 1495 1496 1497 1497 1498 1499 1500 1500 1501 1502 1502 1503 1503 1504 1504 1504 1505 1505 1505 1505 1505 1505 1505 1505 1505
1494 1491 1489 1490 1493 1493 1492 1484 1485 1487 1487 1487 1487 1487 1487 1486 1486 1486 1487 1487 1488 1489 1490 1491 1492 1493 1494 1494 1495 1496 1496 1497 1498 1498 1499 1499 1500 1500 1501 1501 1501 1501 1501 1502 1502 1502 1502 1502 1502
1490 1488 1488 1488 1490 1492 1489 1483 1483 1485 1485 1484 1484 1484 1484 1484 1484 1484 1484 1484 1485 1486 1487 1488 1489 1490 1491 1492 1492 1493 1493 1494 1495 1495 1496 1496 1496 1497 1497 1497 1497 1498 1498 1498 1498 1499 1498 1498 1498
1492 1490 1487 1487 1491 1491 1485 1480 1478 1480 1481 1481 1481 1481 1480 1481 1481 1481 1482 1482 1482 1484 1484 1485 1486 1487 1488 1488 1489 1489 1490 1491 1491 1492 1492 1492 1493 1493 1493 1494 1494 1494 1494 1495 1495 1495 1495 1495 1495
1493 1491 1487 1487 1490 1490 1483 1478 1474 1475 1477 1477 1477 1477 1477 1478 1478 1478 1479 1479 1480 1481 1482 1482 1483 1483 1484 1485 1485 1486 1487 1487 1488 1488 1488 1489 1489 1489 1489 1490 1490 1490 1491 1491 1491 1491 1491 1491 1491
1491 1489 1487 1488 1489 1488 1485 1471 1468 1471 1473 1473 1474 1474 1474 1474 1475 1475 1476 1476 1477 1478 1479 1479 1479 1480 1481 1482 1482 1483 1483 1484 1484 1484 1484 1485 1485 1485 1485 1485 1486 1486 1487 1487 1487 1487 1487 1487 1488
1487 1490 1491 1490 1488 1481 1484 1471 1461 1466 1468 1469 1470 1470 1470 1471 1472 1472 1473 1473 1474 1475 1476 1476 1477 1477 1478 1478 1478 1479 1480 1480 1480 1480 1480 1481 1481 1481 1481 1481 1481 1482 1482 1482 1483 1483 1483 1483 1483
1489 1493 1492 1490 1488 1485 1481 1479 1458 1464 1463 1464 1466 1467 1468 1469 1469 1470 1470 1471 1472 1472 1473 1473 1474 1474 1475 1475 1475 1476 1476 1476 1476 1476 1477 1477 1477 1477 1477 1477 1477 1478 1478 1478 1479 1479 1479 1479 1479
1493 1493 1492 1491 1487 1483 1475 1474 1456 1457 1460 1461 1463 1465 1466 1466 1467 1467 1468 1469 1469 1469 1470 1471 1471 1471 1471 1472 1472 1472 1472 1472 1472 1472 1473 1473 1472 1472 1473 1473 1473 1473 1474 1474 1474 1474 1474 1474 1474
1492 1489 1484 1480 1479 1469 1478 1475 1460 1459 1461 1462 1462 1463 1464 1464 1464 1465 1465 1466 1466 1466 1467 1468 1468 1468 1468 1468 1468 1468 1469 1469 1468 1469 1469 1469 1468 1468 1468 1469 1469 1469 1469 1470 1470 1470 1470 1470 1470
1490 1488 1484 1477 1468 1462 1477 1469 1457 1461 1462 1461 1462 1462 1462 1462 1462 1462 1463 1463 1464 1464 1464 1464 1465 1465 1465 1465 1465 1465 1465 1465 1465 1465 1465 1465 1464 1464 1464 1465 1465 1465 1465 1466 1466 1466 1466 1465 1465
1489 1488 1490 1488 1487 1481 1462 1461 1458 1459 1459 1460 1460 1460 1460 1460 1460 1460 1460 1461 1461 1461 1461 1462 1462 1462 1461 1461 1461 1461 1461 1461 1461 1461 1461 1461 1461 1460 1460 1461 1461 1461 1461 1461 1461 1461 1461 1461 1461
1490 1489 1490 1486 1478 1465 1455 1456 1451 1455 1456 1457 1458 1458 1458 1459 1459 1459 1458 1459 1459 1459 1459 1459 1459 1458 1458 1458 1458 1457 1458 1457 1457 1457 1457 1457 1457 1456 1456 1456 1456 1457 1457 1457 1457 1457 1456 1456 1456
1490 1491 1488 1484 1482 1470 1457 1450 1452 1454 1455 1456 1457 1457 1458 1458 1457 1457 1457 1457 1457 1457 1456 1456 1456 1455 1455 1454 1454 1454 1454 1453 1453 1453 1453 1453 1453 1453 1453 1453 1452 1452 1452 1452 1452 1452 1452 1452 1452
1485 1483 1485 1481 1480 1479 1466 1455 1454 1455 1455 1457 1457 1457 1457 1456 1456 1455 1455 1455 1454 1454 1453 1453 1452 1452 1451 1451 1451 1450 1450 1450 1449 1449 1449 1449 1449 1449 1449 1449 1448 1448 1448 1448 1448 1447 1447 1447 1447